Погода в Лющике

Россия / Псковская область     57°00′56″N   29°54′31″E
темп.,
°C
ветер,
м/с
пор.,
м/с
влажн.,
%
обл.,
%
осадки,
мм/ч
давл.,
гПа
погр.,
м
27 октября, ср
ср2700:00+4юз41183100 0.0 1013398
03:00+6юз41283100 0.0 1011574
06:00+6зюз51291100 1.3 1011645
09:00+7з51185100 1.8 1011918
12:00+7з51083100 0.0 1013894
15:00+9зюз597419 0.1 10131085
18:00+7зюз41181100 0.0 1013681
21:00+7ююз51287100 0.1 1010608
28 октября, чт
чт2800:00+9юз71689100 2.9 10071025
03:00+11з61492100 3.4 10071009
06:00+11зсз6128660 0.3 1008979
09:00+8сз61181100 0.3 10131011
12:00+10сз487319 0.0 1016951
15:00+9ссз357499 0.0 1019931
18:00+6зсз1188100 0.0 102110
21:00+6ю2290100 0.0 102238
29 октября, пт
пт2900:00+6ю3891100 0.0 1022174
03:00+8ю41289100 0.1 1021416
06:00+10юз41195100 0.0 1021523
09:00+10юз412905 0.0 1022467
12:00+13зюз410785 0.0 1022500
15:00+14юз410765 0.0 1022612
18:00+11ююз4118956 0.0 1023363
21:00+10ююз4128824 0.0 1023416
30 октября, сб
сб3000:00+10ююз413895 0.0 1023485
03:00+10ююз4139176 0.0 1023479
06:00+9ююз4129291 0.0 1023429
09:00+9ююз41390100 0.0 1023420
12:00+12ююз4127574 0.0 1023531
15:00+13ю511705 0.0 1022625
18:00+10ю4127753 0.0 1022462
21:00+9ююз4138351 0.0 1023498
31 октября, вс
вс3100:00+9ююз4128720 0.0 1022458
03:00+8ююз3109175 0.0 1022318
06:00+6ю37945 0.0 1022201
09:00+6ю3109159 0.0 1022247
12:00+10ю487164 0.0 1021409
15:00+11ю496864 0.0 1020563
18:00+9ю4127899 0.0 1019453
21:00+8ю5147573 0.0 1019535